Ευχαριστούμε που συμβάλλετε στη διατήρηση της σελίδας μας.

Thank you for your donations, it really helps to maintain the page.

Meteo Stats And More

Στατιστικά Καιρού & Άλλα..






Δείκτης Πυρκαγιάς (FWI)

Καστελόκαμπος Ρίον more information Kastelokampos Rion


Κάμερα Ρομανού more information Romanos Cam


προειδοποίηση για Καταιγίδες more information blitzortung!


Ραντάρ Βροχής more information rain snow radar


Επισκεφθείτε άλλες ιστοσελίδες καιρού μας:

Meteopatras.Eu in
Euweather NetworkMeteopatras.Eu in Euweather Network

Weather CloudWeather Cloud

PWS WeatherPWS Weather

Awekas NetWeather data from station Patra-Ketx

WunderGroundWeather data from station Patra-Ketx



Καταιγίδες Από : 14-12-2018 02:00 Μέχρι : 11:00 προειδοποίηση για : Καταιγίδες Επίπεδο : Κίτρινο info button

Ιδιοκτησία και Επίβλεψη : Μουλάς Αντρέας

 Πάτρα, Ελλάδα - Γ.Πλάτος : 38°14'21" Β - Γ.Μήκος : 21°45'5" Α - Υψόμετρο : 56μ

Select another period ( hide this area )

Μονάδες Περίοδο Custom range Directly to
Μετρικό Αγγλικό Και τα δύο
Καθημερινά Εβδομαδιαία Μηνιαία Ετήσια
use both date-selectors for a custom range
previous Ημέρα
With this date

WeatherUnderground graphs for this period ( click here )



Warning: Division by zero in /mounted-storage/home23/sub048/sc87713-GAHN/meteopatras.eu/weather/wu/WU-History4.php on line 835
Καθημερινά Περίληψη για Παρασκευή 14 Δεκέμβριος 2018
Ώρα Temp. ( °C ) Dew pt. ( °C ) Άνεμος ( km/h ) απο Ριπή ( km/h ) Πίεση ( hPa ) Humid.( % ) Rainrate ( cm ) Solar ( W/m2 )
Υψηλή10,8 8,9 17,2 ΒΑ ( 103/430 ) 24,1 1016,4 91 2,80 0
Μέση Τιμή10,1 8,4 5,1 ΒΑ #18/85 9,2 1015,9 89 3,20 0 #0/85
Χαμηλή9,4 7,5 -   0,0 1015,6 87 -  
Καθημερινά Tabular details for Παρασκευή 14 Δεκέμβριος 2018
Ώρα Temp. ( °C ) Dew pt. ( °C ) Άνεμος ( km/h ) απο Ριπή ( km/h ) Πίεση ( hPa ) Humid.( % ) Rainrate ( cm ) Solar ( W/m2 )
00:04 9,4 7,6 14,5 ΒΒΑ 20,4 1016,0 88 - -
00:09 9,4 7,6 16,7 ΒΒΑ 22,2 1016,0 88 - -
00:14 9,4 7,5 12,7 ΒΒΑ 18,5 1015,8 88 - -
00:19 9,5 7,6 9,5 ΒΒΔ 9,7 1016,0 88 - -
00:24 9,6 7,7 4,3 ΒΒΑ 5,6 1016,0 88 - -
00:29 9,7 7,8 6,3 ΑΝΑ 13,0 1015,8 88 - -
00:34 9,8 7,9   Άπνοια   1016,0 88 - -
00:39 9,8 7,9 6,1 ΒΑ 13,0 1016,0 88 - -
00:44 9,8 7,7 4,8 ΒΑ 7,4 1015,9 87 - -
00:49 9,7 7,7 5,3 ΑΒΑ 6,4 1015,9 87 - -
00:54 9,7 7,6 6,3 ΒΒΑ 12,9 1015,8 87 - -
00:59 9,7 7,6 13,2 Βοράς 14,5 1015,9 87 - -
01:04 9,7 7,6 10,3 ΒΒΔ 16,7 1015,9 87 0,30 -
01:09 9,6 7,7 17,2 Βοράς 19,3 1015,9 88 0,50 -
01:14 9,6 7,7 11,7 Βοράς 24,1 1015,8 88 0,50 -
01:19 9,5 7,8 13,5 Βοράς 19,3 1015,8 89 0,80 -
01:24 9,6 7,8 7,9 ΑΒΑ 16,7 1015,8 89 0,80 -
01:29 9,7 7,9 0,6 Νότος 3,7 1015,9 89 1,30 -
01:34 9,7 8,0   Άπνοια   1015,9 89 1,80 -
01:39 9,8 8,3 8,7 Βοράς 17,7 1015,9 90 2,30 -
01:44 9,9 8,4 6,6 Ανατολή 14,8 1015,8 90 2,30 -
01:49 10,1 8,6 4,2 ΒΒΔ 7,4 1015,8 90 2,80 -
01:54 10,1 8,6 10,5 ΒΑ 14,8 1015,7 90 2,80 -
01:59 10,1 8,6 8,7 ΒΑ 18,5 1015,8 90 2,80 -
02:04 9,9 8,4 10,9 ΒΒΑ 18,5 1015,9 90 2,50 -
02:09 9,8 8,3 12,6 ΒΑ 22,2 1015,9 90 2,30 -
02:14 9,8 8,2 12,1 ΒΒΑ 18,5 1016,0 90 2,30 -
02:19 9,8 8,2 8,2 ΒΑ 20,4 1016,0 90 2,00 -
02:24 9,8 8,2 8,0 Βοράς 19,3 1016,0 90 2,00 -
02:29 9,8 8,2 7,1 ΒΒΑ 16,7 1016,1 90 1,50 -
02:34 9,8 8,2 5,8 ΑΒΑ 13,0 1016,1 90 1,00 -
02:39 9,9 8,3 4,0 ΝΝΑ 8,0 1016,1 90 0,50 -
02:44 10,0 8,6   Άπνοια 3,7 1016,3 91 0,50 -
02:49 10,1 8,7   Άπνοια   1016,4 91 - -
02:54 10,1 8,7   Άπνοια 1,9 1016,3 91 - -
02:59 10,1 8,7   Άπνοια   1016,4 91 - -
03:04 10,0 8,6 2,4 ΝΑ 3,7 1016,3 91 - -
03:09 10,0 8,4 3,1 Ανατολή 5,6 1016,2 90 - -
03:14 9,9 8,4 5,6 ΑΒΑ 11,1 1016,1 90 - -
03:19 9,9 8,4 7,9 Ανατολή 9,3 1016,1 90 - -
03:24 10,0 8,4 1,8 ΑΒΑ 6,4 1016,0 90 - -
03:29 10,2 8,6 3,9 Ανατολή 6,4 1016,0 90 - -
03:34 10,3 8,6 2,1 ΝΑ 11,1 1016,0 89 - -
03:39 10,3 8,6 3,9 ΒΑ 5,6 1015,9 89 - -
03:44 10,3 8,6 4,2 ΒΑ 9,3 1015,9 89 - -
03:49 10,3 8,6 4,3 Ανατολή 5,6 1016,0 89 - -
03:54 10,3 8,6   Άπνοια   1016,1 89 - -
03:59 10,3 8,6 6,6 ΑΝΑ 8,0 1016,0 89 - -
04:04 10,2 8,5 3,2 ΝΑ 5,6 1016,0 89 - -
04:09 10,2 8,6   Άπνοια   1015,9 90 - -
04:14 10,2 8,6   Άπνοια   1015,8 90 - -
04:19 10,1 8,6 2,7 ΝΝΑ 3,7 1015,9 90 - -
04:24 10,2 8,6 5,6 Βοράς 16,1 1015,9 90 - -
04:29 10,2 8,6 6,4 ΑΒΑ 14,8 1015,8 90 - -
04:34 10,2 8,5 7,4 Βοράς 18,5 1015,8 89 - -
04:39 10,3 8,6 10,9 Βοράς 18,5 1015,9 89 - -
04:44 10,3 8,6 11,1 ΒΑ 16,7 1015,8 89 - -
04:49 10,4 8,7 3,9 ΒΒΑ 7,4 1015,7 89 - -
04:54 10,5 8,8 1,8 ΒΑ 3,7 1015,8 89 - -
04:59 10,4 8,7 4,7 Δύση 6,4 1015,8 89 - -
05:04 10,4 8,7 0,2 ΝΝΔ 1,9 1015,9 89 - -
05:09 10,4 8,7 4,7 ΒΑ 6,4 1015,9 89 - -
05:14 10,4 8,7 5,5 ΒΑ 7,4 1015,8 89 - -
05:19 10,4 8,7 2,7 ΑΒΑ 5,6 1015,9 89 - -
05:24 10,4 8,7 4,0 Ανατολή 5,6 1015,8 89 - -
05:29 10,5 8,8 1,8 ΑΒΑ 7,4 1015,7 89 - -
05:34 10,5 8,8 4,8 ΒΑ 5,6 1015,8 89 - -
05:39 10,6 8,8 2,3 ΑΒΑ 4,8 1015,8 89 - -
05:44 10,6 8,9 1,3 ΒΒΑ 5,6 1015,7 89 - -
05:49 10,6 8,9 4,3 ΒΑ 5,6 1015,8 89 - -
05:54 10,7 8,8 2,1 ΝΑ 5,6 1015,8 88 - -
05:59 10,6 8,7   Άπνοια   1015,8 88 - -
06:04 10,5 8,6   Άπνοια   1015,8 88 - -
06:09 10,4 8,7   Άπνοια   1015,8 89 - -
06:14 10,3 8,6 0,5 ΝΑ 1,9 1015,9 89 - -
06:19 10,3 8,8 3,7 ΒΑ 5,6 1016,0 90 - -
06:24 10,4 8,8 5,1 ΑΒΑ 6,4 1015,9 90 - -
06:29 10,4 8,7 6,4 ΒΑ 14,5 1015,9 89 - -
06:34 10,5 8,8 3,5 Βοράς 12,9 1015,8 89 - -
06:39 10,6 8,9 3,5 ΒΒΑ 13,0 1015,7 89 - -
06:44 10,7 8,8 1,3 ΒΑ 1,9 1015,7 88 - -
06:49 10,8 8,9 0,2 ΒΑ 5,6 1015,7 88 - -
06:54 10,8 8,9   Άπνοια 3,7 1015,6 88 - -
06:59 10,7 8,8   Άπνοια   1015,6 88 - -
07:04 10,7 8,8   Άπνοια 1,9 1015,6 88 - -
Καθημερινά Περίληψη για Παρασκευή 14 Δεκέμβριος 2018
Ώρα Temp. ( °C ) Dew pt. ( °C ) Άνεμος ( km/h ) απο Ριπή ( km/h ) Πίεση ( hPa ) Humid.( % ) Rainrate ( cm ) Solar ( W/m2 )
Υψηλή10,8 8,9 17,2 ΒΑ ( 103/430 ) 24,1 1016,4 91 2,80 0
Μέση Τιμή10,1 8,4 5,1 ΒΑ #18/85 9,2 1015,9 89 3,20 0 #0/85
Χαμηλή9,4 7,5 -   0,0 1015,6 87 -  
Καθημερινά Tabular details for Παρασκευή 14 Δεκέμβριος 2018
Ώρα Temp. ( °C ) Dew pt. ( °C ) Άνεμος ( km/h ) απο Ριπή ( km/h ) Πίεση ( hPa ) Humid.( % ) Rainrate ( cm ) Solar ( W/m2 )
00:04 9,4 7,6 14,5 ΒΒΑ 20,4 1016,0 88 - -
00:09 9,4 7,6 16,7 ΒΒΑ 22,2 1016,0 88 - -
00:14 9,4 7,5 12,7 ΒΒΑ 18,5 1015,8 88 - -
00:19 9,5 7,6 9,5 ΒΒΔ 9,7 1016,0 88 - -
00:24 9,6 7,7 4,3 ΒΒΑ 5,6 1016,0 88 - -
00:29 9,7 7,8 6,3 ΑΝΑ 13,0 1015,8 88 - -
00:34 9,8 7,9   Άπνοια   1016,0 88 - -
00:39 9,8 7,9 6,1 ΒΑ 13,0 1016,0 88 - -
00:44 9,8 7,7 4,8 ΒΑ 7,4 1015,9 87 - -
00:49 9,7 7,7 5,3 ΑΒΑ 6,4 1015,9 87 - -
00:54 9,7 7,6 6,3 ΒΒΑ 12,9 1015,8 87 - -
00:59 9,7 7,6 13,2 Βοράς 14,5 1015,9 87 - -
01:04 9,7 7,6 10,3 ΒΒΔ 16,7 1015,9 87 0,30 -
01:09 9,6 7,7 17,2 Βοράς 19,3 1015,9 88 0,50 -
01:14 9,6 7,7 11,7 Βοράς 24,1 1015,8 88 0,50 -
01:19 9,5 7,8 13,5 Βοράς 19,3 1015,8 89 0,80 -
01:24 9,6 7,8 7,9 ΑΒΑ 16,7 1015,8 89 0,80 -
01:29 9,7 7,9 0,6 Νότος 3,7 1015,9 89 1,30 -
01:34 9,7 8,0   Άπνοια   1015,9 89 1,80 -
01:39 9,8 8,3 8,7 Βοράς 17,7 1015,9 90 2,30 -
01:44 9,9 8,4 6,6 Ανατολή 14,8 1015,8 90 2,30 -
01:49 10,1 8,6 4,2 ΒΒΔ 7,4 1015,8 90 2,80 -
01:54 10,1 8,6 10,5 ΒΑ 14,8 1015,7 90 2,80 -
01:59 10,1 8,6 8,7 ΒΑ 18,5 1015,8 90 2,80 -
02:04 9,9 8,4 10,9 ΒΒΑ 18,5 1015,9 90 2,50 -
02:09 9,8 8,3 12,6 ΒΑ 22,2 1015,9 90 2,30 -
02:14 9,8 8,2 12,1 ΒΒΑ 18,5 1016,0 90 2,30 -
02:19 9,8 8,2 8,2 ΒΑ 20,4 1016,0 90 2,00 -
02:24 9,8 8,2 8,0 Βοράς 19,3 1016,0 90 2,00 -
02:29 9,8 8,2 7,1 ΒΒΑ 16,7 1016,1 90 1,50 -
02:34 9,8 8,2 5,8 ΑΒΑ 13,0 1016,1 90 1,00 -
02:39 9,9 8,3 4,0 ΝΝΑ 8,0 1016,1 90 0,50 -
02:44 10,0 8,6   Άπνοια 3,7 1016,3 91 0,50 -
02:49 10,1 8,7   Άπνοια   1016,4 91 - -
02:54 10,1 8,7   Άπνοια 1,9 1016,3 91 - -
02:59 10,1 8,7   Άπνοια   1016,4 91 - -
03:04 10,0 8,6 2,4 ΝΑ 3,7 1016,3 91 - -
03:09 10,0 8,4 3,1 Ανατολή 5,6 1016,2 90 - -
03:14 9,9 8,4 5,6 ΑΒΑ 11,1 1016,1 90 - -
03:19 9,9 8,4 7,9 Ανατολή 9,3 1016,1 90 - -
03:24 10,0 8,4 1,8 ΑΒΑ 6,4 1016,0 90 - -
03:29 10,2 8,6 3,9 Ανατολή 6,4 1016,0 90 - -
03:34 10,3 8,6 2,1 ΝΑ 11,1 1016,0 89 - -
03:39 10,3 8,6 3,9 ΒΑ 5,6 1015,9 89 - -
03:44 10,3 8,6 4,2 ΒΑ 9,3 1015,9 89 - -
03:49 10,3 8,6 4,3 Ανατολή 5,6 1016,0 89 - -
03:54 10,3 8,6   Άπνοια   1016,1 89 - -
03:59 10,3 8,6 6,6 ΑΝΑ 8,0 1016,0 89 - -
04:04 10,2 8,5 3,2 ΝΑ 5,6 1016,0 89 - -
04:09 10,2 8,6   Άπνοια   1015,9 90 - -
04:14 10,2 8,6   Άπνοια   1015,8 90 - -
04:19 10,1 8,6 2,7 ΝΝΑ 3,7 1015,9 90 - -
04:24 10,2 8,6 5,6 Βοράς 16,1 1015,9 90 - -
04:29 10,2 8,6 6,4 ΑΒΑ 14,8 1015,8 90 - -
04:34 10,2 8,5 7,4 Βοράς 18,5 1015,8 89 - -
04:39 10,3 8,6 10,9 Βοράς 18,5 1015,9 89 - -
04:44 10,3 8,6 11,1 ΒΑ 16,7 1015,8 89 - -
04:49 10,4 8,7 3,9 ΒΒΑ 7,4 1015,7 89 - -
04:54 10,5 8,8 1,8 ΒΑ 3,7 1015,8 89 - -
04:59 10,4 8,7 4,7 Δύση 6,4 1015,8 89 - -
05:04 10,4 8,7 0,2 ΝΝΔ 1,9 1015,9 89 - -
05:09 10,4 8,7 4,7 ΒΑ 6,4 1015,9 89 - -
05:14 10,4 8,7 5,5 ΒΑ 7,4 1015,8 89 - -
05:19 10,4 8,7 2,7 ΑΒΑ 5,6 1015,9 89 - -
05:24 10,4 8,7 4,0 Ανατολή 5,6 1015,8 89 - -
05:29 10,5 8,8 1,8 ΑΒΑ 7,4 1015,7 89 - -
05:34 10,5 8,8 4,8 ΒΑ 5,6 1015,8 89 - -
05:39 10,6 8,8 2,3 ΑΒΑ 4,8 1015,8 89 - -
05:44 10,6 8,9 1,3 ΒΒΑ 5,6 1015,7 89 - -
05:49 10,6 8,9 4,3 ΒΑ 5,6 1015,8 89 - -
05:54 10,7 8,8 2,1 ΝΑ 5,6 1015,8 88 - -
05:59 10,6 8,7   Άπνοια   1015,8 88 - -
06:04 10,5 8,6   Άπνοια   1015,8 88 - -
06:09 10,4 8,7   Άπνοια   1015,8 89 - -
06:14 10,3 8,6 0,5 ΝΑ 1,9 1015,9 89 - -
06:19 10,3 8,8 3,7 ΒΑ 5,6 1016,0 90 - -
06:24 10,4 8,8 5,1 ΑΒΑ 6,4 1015,9 90 - -
06:29 10,4 8,7 6,4 ΒΑ 14,5 1015,9 89 - -
06:34 10,5 8,8 3,5 Βοράς 12,9 1015,8 89 - -
06:39 10,6 8,9 3,5 ΒΒΑ 13,0 1015,7 89 - -
06:44 10,7 8,8 1,3 ΒΑ 1,9 1015,7 88 - -
06:49 10,8 8,9 0,2 ΒΑ 5,6 1015,7 88 - -
06:54 10,8 8,9   Άπνοια 3,7 1015,6 88 - -
06:59 10,7 8,8   Άπνοια   1015,6 88 - -
07:04 10,7 8,8   Άπνοια 1,9 1015,6 88 - -

Download your copy of this data-set  here

Our weather-data as stored at Weather Underground. Script developed by Jim McMurry. Προσαρμοσμένος για το πρότυπο του Leuven-Template.eu

Μπορείτε να βρείτε πληροφορίες καιρού μας και σε:

European Weather Network

WeatherCloud

Weather Underground

Δύκτιο Σταθμών Ελλάδας

AWEKAS

HAMweather, WeatherForYou, PWS Weather

MeteoPatras.Eu